Погода в Курдамире

Погода в Курдамире : погода сейчас, прогноз погоды и архив. Всё, что Вы хотите узнать о погоде в Курдамире!

Поиск расширенной информации на нашем сайте:

Другие новости

Новости СМИ2

Главная страница сайта

Новости сайта

03.07.2017

Напоминаем, что на нашем специализированном сайте Метеоцентр.Азия вы можете получить высокодетализированные автоматические прогнозы погоды по пунктам России, СНГ и мира в авиационном формате (включающие направление и скорость ветра, видимость, явления погоды, количество и форму облачности, нижнюю и верхнюю границу облачности).


Погода в Курдамире - сегодня

Время (UTC), дата Ветер
(°,м/с) 
Видим.   Явления Облачность Т
(°С)
Тd
(°С)
f(%) Тe
(°С)
Pmin
(гПа)
dP
(гПа)
Po
(мм)
O2
(г/м3)
Тmin Tmax R s Состояние
почвы
03 17.09.17 070 (В) 20000 м    ясно 
+19.1 +11.9 63 +24  1018.5  764  285           
09 17.09.17 170 (Ю) 20000 м    ясно 
+32.1 +5.8 19 +32  1018.7  -1  764  274           
12 17.09.17 170 (Ю) 20000 м    ясно 
+33.7 +3.6 15 +34  1016.6  -2.1  762  273           
15 17.09.17 140 (ЮВ) 20000 м    ясно 
+30.4 +7 23 +30  1016.6  762  275           
21 17.09.17 040 (СВ) 20000 м    ясно 
+22.2 +14.6 62 +30  1018.1  763  281           
00 18.09.17 080 (В) 20000 м    ясно 
+20.9 +7.6 42 +21  1017.7  -0.4  763  284           
03 18.09.17 070 (В) 20000 м    ясно 
+19 +6.4 44 +20  1018.2  0.5  763  287           
09 18.09.17 270 (З) 20000 м    ясно 
+32.2 +7.3 21 +32  1017.3  -1.5  763  274           
12 18.09.17 200 (Ю) 20000 м    ясно 
+33 +5.9 18 +33  1015.5  -1.8  761  273           
15 18.09.17 110 (В) 20000 м    ясно 
+30.4 +10.3 29 +32  1014.8  -0.7  761  274           
21 18.09.17 090 (В) 20000 м    ясно 
+22.2 +13.2 57 +28  1016.1  0.1  762  281           
00 19.09.17 070 (В) 20000 м    ясно 
+19.8 +10.2 54 +22  1015.2  -0.9  761  284           
03 19.09.17 040 (СВ) 20000 м    ясно 
+17.7 +9.5 59 +19  1015.9  0.7  762  287           
09 19.09.17 160 (Ю) 20000 м    ясно 
+30.3 +12.3 33 +34  1015.3  -1.3  761  273           
12 19.09.17 110 (В) 20000 м    ясно 
+31.8 +10.7 27 +34  1013.7  -1.6  760  272           
15 19.09.17 160 (Ю) 20000 м    ясно 
+29.3 +10.3 31 +31  1014  0.3  760  275           
21 19.09.17 100 (В) 20000 м    ясно 
+22.2 +12.7 55 +27  1015.6  0.4  761  281           
00 20.09.17 050 (СВ) 20000 м    ясно 
+21.4 +11.8 54 +25  1015.1  -0.5  761  282           
03 20.09.17 070 (В) 20000 м    8/4 600 м средняя 
[Sc|Ac trans]
+20.6 +10.5 52 +22  1015.3  0.2  761  283           
06 20.09.17 080 (В) 20000 м    9/6 600 м средняя 
[Sc|Ac trans]
+25.4 +15 53 +34  1016.2  0.9  762  278  +20.5         
09 20.09.17 160 (Ю) 20000 м    6/6 600 м 
[Cu med, cong]
+29.4 +18.7 53 +45  1014.4  -1.8  760  272           
12 20.09.17 150 (ЮВ) 20000 м    3/3 600 м 
[Cu med, cong]
+30.3 +17 45 +42  1013.2  -1.2  760  272           
15 20.09.17 140 (ЮВ) 20000 м    3/0 средняя 
[Ac lent]
+28.1 +18.1 55 +42  1012.9  -0.3  759  273           
21 20.09.17 090 (В) 20000 м    ясно 
+22 +16.4 71 +33  1014.3  0.2  760  280           
00 21.09.17 080 (В) 20000 м    ясно 
+20.1 +15.6 75 +29  1013.9  -0.4  760  282           
Время (UTC), дата Ветер
(°,м/с) 
Видим.   Явления Облачность Т
(°С)
Тd
(°С)
f(%) Тe
(°С)
Pmin
(гПа)
dP
(гПа)
Po
(мм)
O2
(г/м3)
Тmin Tmax R s Состояние
почвы

Для получения пояснительной информации подведите курсор к названию столбца.

ПОГОДА в Курдамире - архив

Всё, что Вы хотите узнать о погоде в Курдамире - удобно и подробно!

Выберите нужную дату (начиная с 1 января 2015* года) и нажмите кнопку "Найти".
Будут отображены архивные сводки погоды по пункту Курдамир, начиная с указанной даты.


Отображать данные в формате CSV (для использования в таблицах Excel)


Внимание! Наш архив погоды предназначен исключительно для личного некоммерческого использования в познавательных целях. Если Вам необходимы официальные справки о состоянии погоды (для производственных, юридических, коммерческих и т.п. целей), обращайтесь в органы Росгидромета.

*Примечание: данная дата относится к архиву по метеостанциям СССР (Россия, СНГ, Балтия).
Архив по метеостанциям Зарубежной Европы и Азии (кроме Китая) хранится 10 дней, по другим регионам земного шара (Китай, Африка, Америка, Австралия, Океания) - 1 день.

Курдамир - район местоположения метеостанции


Название, широта, долгота, высота метеостанции:
Курдамир 40.3°ш. 48.2°д. 4 м над ур. моря [Азербайджан]

Дополнительная информация

В oтличие oт бoльшинства пoгoдных сайтoв мы публикуем пoдрoбную метеoинфoрмацию в детальнoм прoфессиoнальнoм фoрмате.

Характеристики температуры и влажнoсти вoздуха измеряются на высoте 2 м в тени вдали oт зданий и деревьев.
Скoрoсть ветра измеряется на высoте 10 м (на урoвне рoста челoвека скoрoсть ветра ниже в 1.5-2 раза). Если метеoстанция нахoдится в гoрoде или в лесу, тo скoрoсть ветра занижена на 2-4 м/с пo сравнению с oткрытым местoм. Скoрoсть ветра над акватoриями крупных рек и oзёр, а также на вершинах хoлмoв на 2-5 м/с выше, чем в oбычных услoвиях.
Атмoсфернoе давление в разных тoчках местнoсти мoжет значительнo oтличаться oт давления на метеoстанции, в зависимoсти oт услoвий рельефа (при пoдъёме на 10 м давление пoнижается примернo на 1 мм рт.ст.).